Location: Ahausen
(50.4985°N, 8.2722°E)
Time: 07:14:30
(UTC+00:00)

Cosmos 1300 Rocket - Pass Details

Date: 18 September 2020
Orbit: 602 x 626 km, 82.5° (Epoch: 19 October)

Event Time Altitude Azimuth Distance (km) Brightness Sun altitude
Rises 18:17:23 0° 159° (SSE) 2,879 6.7 -7.8°
Reaches altitude 10° 18:19:48 10° 148° (SSE) 1,983 5.7 -8.2°
Maximum altitude 18:23:34 28° 89° (E) 1,166 4.4 -8.8°
Drops below altitude 10° 18:27:22 10° 30° (NNE) 2,008 6.0 -9.3°
Sets 18:29:50 0° 19° (NNE) 2,923 7.0 -9.7°
